Regional Weather Roundup
Issued by NWS

Home | Current Version | Previous Version | Text Only | Print | Product List | Glossary Off
Versions: 1 2 3 4 5 6 7 8 9 10 11 12 13 14 15 16 17 18 19 20 21 22 23 24 25 26 27 28 29 30 31 32 33 34 35 36 37 38 39 40 41 42 43 44 45 46 47 48 49 50

000
ASUS43 KMKX 221121
RWRWI

WISCONSIN REGIONAL WEATHER ROUNDUP
NATIONAL WEATHER SERVICE MILWAUKEE/SULLIVAN WI
500 AM CST WED FEB 22 2017

NOTE: "FAIR" INDICATES FEW OR NO CLOUDS BELOW 12,000 FEET WITH NO
SIGNIFICANT WEATHER AND/OR OBSTRUCTIONS TO VISIBILITY.

WIZ001-002-006>008-014>016-023>028-221200-
NORTHWEST WISCONSIN

CITY           SKY/WX    TMP DP  RH WIND       PRES   REMARKS
SUPERIOR ARPT  CLOUDY    32  32 100 CALM      29.65R FOG
ASHLAND        MOCLDY    36  34  92 W3        29.63F
HAYWARD        CLOUDY    32  31  96 CALM      29.63F
SIREN          FOG       32  32 100 CALM      29.63S VSB 1/2
CUMBERLAND     FOG       32  32 100 SE3       29.62F VSB 3/4
RICE LAKE      MOCLDY    32  32  99 CALM      29.66S
CHETEK         MOCLDY    32  32 100 W3        29.66R FOG
LADYSMITH      PTCLDY    35  33  94 CALM      29.65S
EAU CLAIRE     PTCLDY    35  34  96 SW8       29.68R WCI  29
MENOMONIE      CLOUDY    37  35  93 NE7       29.64F WCI  31
NEW RICHMOND   CLOUDY    37  37 100 SE6       29.62F FOG     WCI  33
OSCEOLA        LGT RAIN  37  37 100 E9        29.62F WCI  31
$$

WIZ003>005-009-010-017-018-221200-
NORTH CENTRAL WISCONSIN

CITY           SKY/WX    TMP DP  RH WIND       PRES   REMARKS
MANITOWISH WTR PTCLDY    33  33 100 CALM      29.64F
ARBOR VITAE    CLOUDY    37  34  90 CALM        N/A
WOODRUFF       CLOUDY    37  34  90 CALM        N/A
RHINELANDER    CLOUDY    41  35  79 W3        29.65F
EAGLE RIVER    CLOUDY    35  31  84 CALM      29.65S
LAND O LAKES   CLEAR     32  31  96 CALM      29.66F
PHILLIPS       CLOUDY    32  32  99 CALM      29.63F
TOMAHAWK       CLOUDY    32  30  92 CALM      29.66F
MEDFORD        PTCLDY    37  34  88 S6        29.64F WCI  33
MERRILL        NOT AVBL
$$

WIZ029-030-035-036-043>047-221200-
CENTRAL WISCONSIN

CITY           SKY/WX    TMP DP  RH WIND       PRES   REMARKS
WAUSAU         PTCLDY    39  34  82 S6        29.65F WCI  35
MOSINEE        CLEAR     36  34  93 S5        29.68S WCI  32
MARSHFIELD     CLOUDY    37  33  85 S8        29.65F WCI  31
STEVENS POINT  CLEAR     32  31  99 CALM      29.69S
WAUPACA        CLEAR     36  32  85 CALM      29.69S
WAUTOMA        CLEAR     30  28  92 CALM      29.70F
WISC RAPIDS    CLEAR     40  36  86 SW7       29.68F
CAMP DOUGLAS   CLEAR     45  38  76 S7        29.67F
$$

WIZ011>013-019>022-031-037>040-048>050-221200-
NORTHEAST WISCONSIN

CITY           SKY/WX    TMP DP  RH WIND       PRES   REMARKS
ANTIGO         PTCLDY    36  32  87 SW3       29.67S
SHAWANO        PTCLDY    39  34  84 CALM      29.69R
OCONTO         PTCLDY    31  30  94 CALM      29.69S
STURGEON BAY   PTCLDY    36  35  96 SE5       29.71F WCI  32
GREEN BAY      PTCLDY    42  39  89 S5        29.70F
MANITOWOC      CLEAR     34  34 100 SE3       29.72S FOG
APPLETON       CLEAR     41  36  81 S8        29.68F
CLINTONVILLE   PTCLDY    34  32  93 CALM      29.69R
OSHKOSH        CLEAR     45  40  82 S10       29.70S
$$

WIZ032>034-041-042-053>061-221200-
SOUTHWEST WISCONSIN

CITY           SKY/WX    TMP DP  RH WIND       PRES   REMARKS
LA CROSSE      PTCLDY    46  37  71 S6        29.67F
SPARTA         PTCLDY    49  37  63 SW5       29.69R
VIROQUA        PTCLDY    47  36  66 S10       29.69S
BOSCOBEL       CLEAR     32  31  96 CALM      29.72F FOG
PRAIRIE DU CHI CLEAR     40  35  81 CALM      29.71F
PLATTEVILLE    CLOUDY    41  41 100 SE12      29.75S VSB 1/4
$$

WIZ056-057-062-063-064-067-068-221200-
SOUTH CENTRAL WISCONSIN

CITY           SKY/WX    TMP DP  RH WIND       PRES   REMARKS
REEDSBURG      CLEAR     49  45  88 S3        29.69F
BARABOO/DELLS  CLEAR     51  44  78 SW9       29.71S
LONE ROCK      FOG       38  38 100 E3        29.73S VSB 3/4
MINERAL POINT  FOG       46  46 100 S8        29.75S VSB 1/4
MADISON        CLEAR     45  43  93 S8        29.74S
MIDDLETON      CLEAR     52  48  86 SW8       29.74R
WATERTOWN      FOG       47  47 100 S9        29.75R VSB 1/2
MONROE         DRZL/FOG  50  50 100 SW17      29.76S VSB 1/4
JANESVILLE     FOG       50  50 100 SW5       29.77S VSB 1/2
$$

WIZ051-052-058>065-066-070>072-221200-
SOUTHEAST WISCONSIN

CITY           SKY/WX    TMP DP  RH WIND       PRES   REMARKS
MILWAUKEE      FOG       50  48  93 SW7       29.77F VSB 1/4
WAUKESHA       FOG       46  46 100 S7        29.77F VSB 1/2
MILWAUKEE/TIMM FOG       50  46  87 SW14      29.77S VSB 1
RACINE         FOG       50  49  96 SW10      29.80S VSB 1/4
KENOSHA        FOG       46  46 100 S6        29.79S VSB<1/4
FOND DU LAC    CLEAR     48  42  80 SW9       29.72S
SHEBOYGAN      CLEAR     41  38  89 SW6       29.73S
WEST BEND      CLEAR     50  48  93 SW6       29.75S
JUNEAU         CLEAR     43  42  95 S8        29.75S FOG
$$

LSZ147-162-221200-
LAKE SUPERIOR

STATION/POSITION TIME  TEMP    WIND        PRES    WAVE
                       AIR SEA DIR/SP/G            HT/PER
                 (UTC) (F)     (DEG/KT/KT) (MB)    (FT/S)
DEVILS ISLAND    1100   36     250/  3/  4 1004.1F
PORT WING        1100   31     170/  3/  5 1004.4
SAXON HARBOR     1030   35     190/  2/  6 1003.7R
$$

LMZ867-665-643>646-221200-
LAKE MICHIGAN

STATION/POSITION TIME  TEMP    WIND        PRES    WAVE
                       AIR SEA DIR/SP/G            HT/PER
                 (UTC) (F)     (DEG/KT/KT) (MB)    (FT/S)
CHAMBERS ISLAND  1040   46     170/  6/ 11 1005.1F
NORTHPORT PIER   1040   38     160/  5/ 11 1005.8F
SISTER BAY       1005   38     170/  7/  9   N/A
ALGOMA LAKESHORE 0910          210/  8/ 10   N/A
KEWAUNEE LAKESHO 1054   37     180/  3/  5 1005.6F
SHEBOYGAN LAKESH 1100   40     180/  7/  7 1006.9F
PORT WASHINGTON  1040   40     190/  4/  8 1008.5F
MILWAUKEE LAKESH 1100   47     220/  7/  9   N/A
KENOSHA   LAKESH 1100   44     190/  7/ 10 1009.1
$$

TC  - TEMPERATURE IN CELSIUS
VSB - VISIBILITY IN STATUTE MILES
WCI - WIND CHILL INDEX
HX  - HEAT INDEX




USA.gov is the U.S. government's official web portal to all federal, state and local government web resources and services.